Wetterdaten: Sonntag, 31.01.2016
Datum Zeit Auen-Temp. Temp gefhlt Luftfeuchte Luftdruck Regen Wind Richtung Richtung Taupunkt Windben
31.01.2016 00:00 3,9 C 3,6 C 89 % 1013,8 hPa 0,0 mm 6,0 km/h (2 Bft) SW 225 2,3 C 10,9 km/h (2 Bft)
31.01.2016 00:05 4,0 C 3,6 C 89 % 1013,9 hPa 0,7 mm 7,3 km/h (2 Bft) W 270 2,4 C 8,0 km/h (2 Bft)
31.01.2016 00:10 4,0 C 3,4 C 89 % 1013,9 hPa 0,0 mm 9,3 km/h (2 Bft) W-NW 292 2,4 C 18,6 km/h (3 Bft)
31.01.2016 00:15 3,9 C 3,3 C 90 % 1013,9 hPa 0,0 mm 9,1 km/h (2 Bft) SW 225 2,4 C 6,2 km/h (2 Bft)
31.01.2016 00:20 3,9 C 3,4 C 90 % 1013,9 hPa 0,0 mm 8,3 km/h (2 Bft) W 270 2,4 C 10,4 km/h (2 Bft)
31.01.2016 00:25 3,8 C 3,2 C 90 % 1014,1 hPa 0,7 mm 9,1 km/h (2 Bft) W-SW 247 2,3 C 25,1 km/h (4 Bft)
31.01.2016 00:30 3,8 C 3,2 C 90 % 1014,1 hPa 0,0 mm 8,5 km/h (2 Bft) W 270 2,3 C 11,4 km/h (2 Bft)
31.01.2016 00:35 3,8 C 3,1 C 90 % 1014,1 hPa 0,7 mm 9,6 km/h (2 Bft) W-NW 292 2,3 C 14,8 km/h (3 Bft)
31.01.2016 00:40 3,7 C 3,1 C 90 % 1014,1 hPa 0,0 mm 12,4 km/h (3 Bft) W-NW 292 2,2 C 27,4 km/h (4 Bft)
31.01.2016 00:45 3,6 C 2,8 C 90 % 1014,1 hPa 0,0 mm 12,4 km/h (3 Bft) W-SW 247 2,1 C 27,7 km/h (4 Bft)
31.01.2016 00:50 3,6 C 2,8 C 90 % 1014,1 hPa 0,0 mm 11,7 km/h (2 Bft) SW 225 2,1 C 17,3 km/h (3 Bft)
31.01.2016 00:55 3,5 C 2,7 C 90 % 1014,1 hPa 0,7 mm 11,7 km/h (2 Bft) W-SW 247 2,0 C 27,2 km/h (4 Bft)
31.01.2016 01:00 3,4 C 2,8 C 90 % 1014,1 hPa 0,0 mm 13,5 km/h (3 Bft) W-SW 247 1,9 C 25,1 km/h (4 Bft)
31.01.2016 01:05 3,4 C 2,7 C 90 % 1014,2 hPa 0,0 mm 13,7 km/h (3 Bft) W 270 1,9 C 28,0 km/h (4 Bft)
31.01.2016 01:10 3,3 C 2,3 C 90 % 1014,2 hPa 0,7 mm 13,5 km/h (3 Bft) NW 315 1,8 C 28,7 km/h (4 Bft)
31.01.2016 01:15 3,3 C 2,6 C 90 % 1014,2 hPa 0,0 mm 13,7 km/h (3 Bft) NW 315 1,8 C 21,2 km/h (4 Bft)
31.01.2016 01:20 3,2 C 2,5 C 89 % 1014,2 hPa 0,0 mm 14,5 km/h (3 Bft) W 270 1,6 C 8,3 km/h (2 Bft)
31.01.2016 01:25 3,1 C 2,4 C 89 % 1014,4 hPa 0,7 mm 12,7 km/h (3 Bft) W-NW 292 1,5 C 33,7 km/h (5 Bft)
31.01.2016 01:30 3,0 C 2,3 C 89 % 1014,4 hPa 0,0 mm 9,8 km/h (2 Bft) O-SO 112 1,4 C 7,0 km/h (2 Bft)
31.01.2016 01:35 3,0 C 2,2 C 89 % 1014,4 hPa 0,0 mm 10,1 km/h (2 Bft) W-SW 247 1,4 C 9,3 km/h (2 Bft)
31.01.2016 01:40 2,9 C 2,1 C 91 % 1014,4 hPa 0,7 mm 10,9 km/h (2 Bft) SW 225 1,6 C 15,3 km/h (3 Bft)
31.01.2016 01:45 2,9 C 2,2 C 91 % 1014,2 hPa 0,0 mm 12,9 km/h (3 Bft) W 270 1,6 C 21,8 km/h (4 Bft)
31.01.2016 01:50 2,7 C 1,8 C 91 % 1014,2 hPa 0,0 mm 12,7 km/h (3 Bft) W 270 1,4 C 6,7 km/h (2 Bft)
31.01.2016 01:55 2,7 C 2,0 C 91 % 1014,2 hPa 0,0 mm 12,9 km/h (3 Bft) W-NW 292 1,4 C 23,8 km/h (4 Bft)
31.01.2016 02:00 2,6 C 1,9 C 90 % 1014,2 hPa 0,7 mm 12,7 km/h (3 Bft) W 270 1,1 C 19,7 km/h (3 Bft)
31.01.2016 02:05 2,5 C 1,8 C 90 % 1014,4 hPa 0,0 mm 13,7 km/h (3 Bft) NW 315 1,0 C 19,9 km/h (4 Bft)
31.01.2016 02:10 2,3 C 1,6 C 90 % 1014,4 hPa 0,7 mm 14,0 km/h (3 Bft) SW 225 0,8 C 9,8 km/h (2 Bft)
31.01.2016 02:15 2,2 C 1,2 C 90 % 1014,4 hPa 0,0 mm 12,7 km/h (3 Bft) NO 45 0,7 C 8,8 km/h (2 Bft)
31.01.2016 02:20 2,1 C 1,2 C 90 % 1014,4 hPa 0,7 mm 11,1 km/h (2 Bft) W 270 0,6 C 14,0 km/h (3 Bft)
31.01.2016 02:25 2,0 C 1,1 C 90 % 1015,0 hPa 0,0 mm 10,6 km/h (2 Bft) W 270 0,5 C 14,0 km/h (3 Bft)
31.01.2016 02:30 1,9 C 1,0 C 91 % 1015,0 hPa 0,7 mm 11,1 km/h (2 Bft) N 360 0,6 C 15,0 km/h (3 Bft)
31.01.2016 02:35 1,8 C 0,8 C 91 % 1015,0 hPa 0,7 mm 11,4 km/h (2 Bft) W 270 0,5 C 11,7 km/h (2 Bft)
31.01.2016 02:40 1,7 C 0,9 C 91 % 1015,0 hPa 0,0 mm 9,8 km/h (2 Bft) W-SW 247 0,4 C 11,7 km/h (2 Bft)
31.01.2016 02:45 1,6 C 0,9 C 91 % 1015,0 hPa 0,7 mm 8,5 km/h (2 Bft) W-SW 247 0,3 C 14,5 km/h (3 Bft)
31.01.2016 02:50 1,5 C 0,8 C 91 % 1015,0 hPa 0,0 mm 7,5 km/h (2 Bft) W-SW 247 0,2 C 11,4 km/h (2 Bft)
31.01.2016 02:55 1,3 C 0,6 C 91 % 1015,0 hPa 0,0 mm 7,8 km/h (2 Bft) W-SW 247 -0,0 C 4,4 km/h (1 Bft)
31.01.2016 03:00 1,3 C 0,6 C 91 % 1015,0 hPa 0,7 mm 7,3 km/h (2 Bft) W 270 -0,0 C 7,3 km/h (2 Bft)
31.01.2016 03:05 1,3 C 0,7 C 91 % 1015,2 hPa 0,0 mm 7,0 km/h (2 Bft) S-SO 157 -0,0 C 5,4 km/h (1 Bft)
31.01.2016 03:10 1,2 C 0,6 C 91 % 1015,2 hPa 0,7 mm 6,7 km/h (2 Bft) W 270 -0,1 C 16,1 km/h (3 Bft)
31.01.2016 03:15 1,2 C 0,6 C 91 % 1015,2 hPa 0,0 mm 6,5 km/h (2 Bft) N 360 -0,1 C 7,3 km/h (2 Bft)
31.01.2016 03:20 1,2 C 0,4 C 91 % 1015,2 hPa 0,0 mm 8,5 km/h (2 Bft) W-NW 292 -0,1 C 11,1 km/h (2 Bft)
31.01.2016 03:25 1,2 C 0,5 C 91 % 1015,4 hPa 0,7 mm 8,0 km/h (2 Bft) W 270 -0,1 C 9,6 km/h (2 Bft)
31.01.2016 03:30 1,1 C 0,3 C 91 % 1015,4 hPa 0,0 mm 8,0 km/h (2 Bft) W-NW 292 -0,2 C 13,7 km/h (3 Bft)
31.01.2016 03:35 0,9 C 0,2 C 92 % 1015,4 hPa 0,0 mm 7,5 km/h (2 Bft) W 270 -0,2 C 3,1 km/h (1 Bft)
31.01.2016 03:40 0,8 C 0,3 C 92 % 1015,4 hPa 0,0 mm 5,4 km/h (1 Bft) SW 225 -0,3 C 0,0 km/h (0 Bft)
31.01.2016 03:45 0,7 C 0,5 C 92 % 1015,7 hPa 0,0 mm 3,9 km/h (1 Bft) W-SW 247 -0,4 C 3,4 km/h (1 Bft)
31.01.2016 03:50 0,7 C 0,3 C 92 % 1015,7 hPa 0,7 mm 4,4 km/h (1 Bft) W-NW 292 -0,4 C 8,8 km/h (2 Bft)
31.01.2016 03:55 0,6 C 0,2 C 92 % 1015,7 hPa 0,0 mm 5,2 km/h (1 Bft) W 270 -0,5 C 4,7 km/h (1 Bft)
31.01.2016 04:00 0,6 C 0,1 C 92 % 1015,7 hPa 0,0 mm 5,2 km/h (1 Bft) W 270 -0,5 C 6,5 km/h (2 Bft)
31.01.2016 04:05 0,6 C 0,2 C 92 % 1015,7 hPa 0,0 mm 4,4 km/h (1 Bft) S-SO 157 -0,5 C 7,0 km/h (2 Bft)
31.01.2016 04:10 0,5 C 0,1 C 92 % 1015,7 hPa 0,0 mm 4,4 km/h (1 Bft) W-NW 292 -0,6 C 5,2 km/h (1 Bft)
31.01.2016 04:15 0,4 C 0,1 C 92 % 1015,7 hPa 0,0 mm 4,1 km/h (1 Bft) W 270 -0,7 C 3,9 km/h (1 Bft)
31.01.2016 04:20 0,4 C 0,2 C 92 % 1015,7 hPa 0,0 mm 2,1 km/h (1 Bft) W-NW 292 -0,7 C 0,0 km/h (0 Bft)
31.01.2016 04:25 0,3 C 0,1 C 92 % 1015,7 hPa 0,0 mm 1,6 km/h (1 Bft) W-NW 292 -0,8 C 3,1 km/h (1 Bft)
31.01.2016 04:29 0,3 C 0,1 C 92 % 1015,7 hPa 0,0 mm 1,6 km/h (1 Bft) W-NW 292 -0,8 C 3,1 km/h (1 Bft)
31.01.2016 04:30 0,3 C 0,1 C 92 % 1015,7 hPa 0,0 mm 2,6 km/h (1 Bft) W-NW 292 -0,8 C 6,2 km/h (2 Bft)
31.01.2016 04:35 0,3 C 0,1 C 92 % 1015,7 hPa 0,0 mm 3,1 km/h (1 Bft) W-NW 292 -0,8 C 2,6 km/h (1 Bft)
31.01.2016 04:40 0,2 C 0,0 C 92 % 1015,7 hPa 0,0 mm 1,8 km/h (1 Bft) W 270 -0,9 C 3,9 km/h (1 Bft)
31.01.2016 04:45 0,2 C 0,0 C 92 % 1015,5 hPa 0,0 mm 1,0 km/h (0 Bft) W 270 -0,9 C 0,0 km/h (0 Bft)
31.01.2016 04:50 0,2 C 0,0 C 92 % 1015,5 hPa 0,7 mm 0,5 km/h (0 Bft) W 270 -0,9 C 0,0 km/h (0 Bft)
31.01.2016 04:55 0,2 C 0,0 C 92 % 1015,5 hPa 0,0 mm 0,0 km/h (0 Bft) W 270 -0,9 C 0,0 km/h (0 Bft)
31.01.2016 05:00 0,2 C 0,0 C 92 % 1015,5 hPa 0,0 mm 0,0 km/h (0 Bft) W 270 -0,9 C 0,0 km/h (0 Bft)
31.01.2016 05:05 0,2 C 0,0 C 92 % 1015,5 hPa 0,0 mm 0,0 km/h (0 Bft) W 270 -0,9 C 0,0 km/h (0 Bft)
31.01.2016 05:10 0,2 C 0,0 C 92 % 1015,5 hPa 0,0 mm 0,0 km/h (0 Bft) W 270 -0,9 C 0,0 km/h (0 Bft)
31.01.2016 05:15 0,2 C 0,0 C 92 % 1015,5 hPa 0,0 mm 0,0 km/h (0 Bft) W 270 -0,9 C 0,0 km/h (0 Bft)
31.01.2016 05:20 0,2 C 0,0 C 92 % 1015,5 hPa 0,0 mm 0,0 km/h (0 Bft) W 270 -0,9 C 0,0 km/h (0 Bft)
31.01.2016 05:25 0,2 C 0,0 C 92 % 1015,5 hPa 0,0 mm 0,0 km/h (0 Bft) W 270 -0,9 C 0,0 km/h (0 Bft)
31.01.2016 05:30 0,2 C 0,0 C 92 % 1015,5 hPa 0,0 mm 0,0 km/h (0 Bft) W 270 -0,9 C 0,0 km/h (0 Bft)
31.01.2016 05:35 0,2 C 0,0 C 92 % 1015,5 hPa 0,0 mm 0,0 km/h (0 Bft) W 270 -0,9 C 0,0 km/h (0 Bft)
31.01.2016 05:40 0,2 C 0,0 C 92 % 1015,5 hPa 0,0 mm 0,0 km/h (0 Bft) W 270 -0,9 C 0,0 km/h (0 Bft)
31.01.2016 05:45 0,2 C 0,0 C 92 % 1015,5 hPa 0,0 mm 0,0 km/h (0 Bft) W 270 -0,9 C 0,0 km/h (0 Bft)
31.01.2016 05:50 0,2 C 0,0 C 92 % 1015,5 hPa 0,0 mm 0,0 km/h (0 Bft) W 270 -0,9 C 0,0 km/h (0 Bft)
31.01.2016 05:55 0,2 C 0,0 C 92 % 1015,5 hPa 0,0 mm 0,0 km/h (0 Bft) W 270 -0,9 C 0,0 km/h (0 Bft)
31.01.2016 06:00 0,2 C 0,0 C 92 % 1015,5 hPa 0,0 mm 0,0 km/h (0 Bft) W 270 -0,9 C 0,0 km/h (0 Bft)
31.01.2016 06:05 0,2 C 0,0 C 92 % 1015,8 hPa 0,0 mm 0,0 km/h (0 Bft) W 270 -0,9 C 0,0 km/h (0 Bft)
31.01.2016 06:10 0,2 C 0,0 C 92 % 1015,8 hPa 0,0 mm 0,0 km/h (0 Bft) W 270 -0,9 C 0,0 km/h (0 Bft)
31.01.2016 06:15 0,2 C 0,0 C 92 % 1015,8 hPa 0,0 mm 0,0 km/h (0 Bft) W 270 -0,9 C 0,0 km/h (0 Bft)
31.01.2016 06:20 0,2 C 0,0 C 92 % 1015,8 hPa 0,0 mm 0,0 km/h (0 Bft) W 270 -0,9 C 0,0 km/h (0 Bft)
31.01.2016 06:25 0,2 C 0,0 C 92 % 1015,9 hPa 0,0 mm 0,0 km/h (0 Bft) W 270 -0,9 C 0,0 km/h (0 Bft)
31.01.2016 06:30 0,2 C 0,0 C 92 % 1015,9 hPa 0,0 mm 0,0 km/h (0 Bft) W 270 -0,9 C 0,0 km/h (0 Bft)
31.01.2016 06:35 0,2 C 0,0 C 92 % 1015,9 hPa 0,0 mm 0,0 km/h (0 Bft) W 270 -0,9 C 0,0 km/h (0 Bft)
31.01.2016 06:40 0,2 C 0,0 C 92 % 1015,9 hPa 0,0 mm 0,0 km/h (0 Bft) W 270 -0,9 C 0,0 km/h (0 Bft)
31.01.2016 06:45 0,2 C 0,0 C 92 % 1016,0 hPa 0,0 mm 0,0 km/h (0 Bft) W 270 -0,9 C 0,0 km/h (0 Bft)
31.01.2016 06:50 0,2 C 0,0 C 92 % 1016,0 hPa 0,0 mm 0,0 km/h (0 Bft) W 270 -0,9 C 0,0 km/h (0 Bft)
31.01.2016 06:55 0,2 C 0,0 C 92 % 1016,0 hPa 0,0 mm 0,0 km/h (0 Bft) W 270 -0,9 C 0,0 km/h (0 Bft)
31.01.2016 07:00 0,2 C 0,0 C 92 % 1016,0 hPa 0,0 mm 0,0 km/h (0 Bft) W 270 -0,9 C 0,0 km/h (0 Bft)
31.01.2016 07:05 0,2 C 0,0 C 92 % 1016,0 hPa 0,0 mm 0,0 km/h (0 Bft) W 270 -0,9 C 0,0 km/h (0 Bft)
31.01.2016 07:10 0,2 C 0,0 C 92 % 1016,0 hPa 0,0 mm 0,0 km/h (0 Bft) W 270 -0,9 C 0,0 km/h (0 Bft)
31.01.2016 07:15 0,2 C 0,0 C 92 % 1016,0 hPa 0,0 mm 0,0 km/h (0 Bft) W 270 -0,9 C 0,0 km/h (0 Bft)
31.01.2016 07:20 0,2 C 0,0 C 92 % 1016,0 hPa 0,0 mm 0,0 km/h (0 Bft) W 270 -0,9 C 0,0 km/h (0 Bft)
31.01.2016 07:25 0,2 C 0,0 C 93 % 1016,4 hPa 0,0 mm 0,0 km/h (0 Bft) W 270 -0,8 C 0,0 km/h (0 Bft)
31.01.2016 07:30 0,2 C 0,0 C 93 % 1016,4 hPa 0,0 mm 0,0 km/h (0 Bft) W 270 -0,8 C 0,0 km/h (0 Bft)
31.01.2016 07:35 0,2 C 0,0 C 93 % 1016,4 hPa 0,0 mm 0,0 km/h (0 Bft) W 270 -0,8 C 0,0 km/h (0 Bft)
31.01.2016 07:40 0,2 C 0,0 C 93 % 1016,4 hPa 0,0 mm 0,0 km/h (0 Bft) W 270 -0,8 C 0,0 km/h (0 Bft)
31.01.2016 07:45 0,2 C 0,1 C 86 % 1016,3 hPa 0,0 mm 0,0 km/h (0 Bft) W 270 -1,9 C 0,0 km/h (0 Bft)
31.01.2016 07:50 0,2 C 0,1 C 86 % 1016,3 hPa 0,0 mm 0,0 km/h (0 Bft) W-SW 247 -1,9 C 0,0 km/h (0 Bft)
31.01.2016 07:55 0,2 C 0,1 C 86 % 1016,3 hPa 0,0 mm 0,0 km/h (0 Bft) W-SW 247 -1,9 C 0,0 km/h (0 Bft)
31.01.2016 08:00 0,2 C 0,1 C 86 % 1016,3 hPa 0,0 mm 0,0 km/h (0 Bft) W-SW 247 -1,9 C 0,0 km/h (0 Bft)
31.01.2016 08:05 0,3 C 0,1 C 93 % 1016,5 hPa 0,0 mm 0,0 km/h (0 Bft) W-SW 247 -0,7 C 0,0 km/h (0 Bft)
31.01.2016 08:10 0,3 C 0,1 C 93 % 1016,5 hPa 0,0 mm 0,0 km/h (0 Bft) W-SW 247 -0,7 C 0,0 km/h (0 Bft)
31.01.2016 08:15 0,2 C 0,1 C 87 % 1016,5 hPa 0,0 mm 0,0 km/h (0 Bft) W-SW 247 -1,7 C 0,0 km/h (0 Bft)
31.01.2016 08:20 0,2 C 0,1 C 87 % 1016,5 hPa 0,0 mm 0,0 km/h (0 Bft) W-SW 247 -1,7 C 0,0 km/h (0 Bft)
31.01.2016 08:25 0,2 C 0,1 C 87 % 1016,2 hPa 0,0 mm 0,0 km/h (0 Bft) W-SW 247 -1,7 C 0,0 km/h (0 Bft)
31.01.2016 08:30 0,2 C 0,1 C 87 % 1016,2 hPa 0,0 mm 0,0 km/h (0 Bft) W-SW 247 -1,7 C 0,0 km/h (0 Bft)
31.01.2016 08:35 0,2 C 0,1 C 87 % 1016,2 hPa 0,0 mm 0,0 km/h (0 Bft) W-SW 247 -1,7 C 0,0 km/h (0 Bft)
31.01.2016 08:40 0,2 C 0,1 C 87 % 1016,2 hPa 0,0 mm 0,0 km/h (0 Bft) W-SW 247 -1,7 C 0,0 km/h (0 Bft)
31.01.2016 08:45 0,2 C 0,2 C 87 % 1016,3 hPa 0,0 mm 0,0 km/h (0 Bft) W-SW 247 -1,7 C 0,0 km/h (0 Bft)
31.01.2016 08:50 0,4 C 0,2 C 93 % 1016,3 hPa 0,0 mm 0,0 km/h (0 Bft) W-SW 247 -0,6 C 0,0 km/h (0 Bft)
31.01.2016 08:55 0,5 C 0,3 C 87 % 1016,3 hPa 0,0 mm 0,0 km/h (0 Bft) W-SW 247 -1,4 C 0,0 km/h (0 Bft)
31.01.2016 09:00 0,6 C 0,3 C 93 % 1016,3 hPa 0,0 mm 0,0 km/h (0 Bft) W-SW 247 -0,4 C 0,0 km/h (0 Bft)
31.01.2016 09:05 0,7 C 0,4 C 93 % 1016,1 hPa 0,0 mm 0,0 km/h (0 Bft) W-SW 247 -0,3 C 0,0 km/h (0 Bft)
31.01.2016 09:10 0,7 C 0,4 C 93 % 1016,1 hPa 0,7 mm 0,0 km/h (0 Bft) W-SW 247 -0,3 C 0,0 km/h (0 Bft)
31.01.2016 09:15 0,7 C 0,5 C 88 % 1016,1 hPa 0,0 mm 0,0 km/h (0 Bft) SW 225 -1,1 C 0,0 km/h (0 Bft)
31.01.2016 09:20 0,8 C 0,5 C 93 % 1016,1 hPa 0,0 mm 0,0 km/h (0 Bft) SW 225 -0,2 C 0,0 km/h (0 Bft)
31.01.2016 09:25 0,9 C 0,6 C 93 % 1015,9 hPa 0,0 mm 0,0 km/h (0 Bft) W 270 -0,1 C 0,0 km/h (0 Bft)
31.01.2016 09:30 1,0 C 0,7 C 93 % 1015,9 hPa 0,0 mm 0,0 km/h (0 Bft) W-SW 247 -0,0 C 0,0 km/h (0 Bft)
31.01.2016 09:35 1,0 C 0,8 C 87 % 1015,9 hPa 0,7 mm 0,0 km/h (0 Bft) N-NW 337 -0,9 C 0,0 km/h (0 Bft)
31.01.2016 09:40 1,0 C 0,9 C 87 % 1015,9 hPa 0,0 mm 0,0 km/h (0 Bft) SW 225 -0,9 C 0,0 km/h (0 Bft)
31.01.2016 09:45 1,0 C 0,9 C 87 % 1015,9 hPa 0,0 mm 0,0 km/h (0 Bft) S 180 -0,9 C 0,0 km/h (0 Bft)
31.01.2016 09:50 0,9 C 0,9 C 88 % 1015,9 hPa 0,0 mm 0,0 km/h (0 Bft) W-SW 247 -0,9 C 0,0 km/h (0 Bft)
31.01.2016 09:55 0,9 C 0,8 C 88 % 1015,9 hPa 0,0 mm 0,0 km/h (0 Bft) S-SO 157 -0,9 C 0,0 km/h (0 Bft)
31.01.2016 10:00 0,8 C 0,9 C 88 % 1015,9 hPa 0,0 mm 0,0 km/h (0 Bft) SO 135 -1,0 C 0,0 km/h (0 Bft)
31.01.2016 10:05 0,8 C 1,0 C 88 % 1015,9 hPa 0,7 mm 0,0 km/h (0 Bft) S-SW 202 -1,0 C 0,0 km/h (0 Bft)
31.01.2016 10:10 0,8 C 0,9 C 88 % 1015,9 hPa 0,0 mm 0,0 km/h (0 Bft) S-SW 202 -1,0 C 0,0 km/h (0 Bft)
31.01.2016 10:15 0,8 C 1,0 C 88 % 1015,9 hPa 0,0 mm 0,0 km/h (0 Bft) S 180 -1,0 C 0,0 km/h (0 Bft)
31.01.2016 10:20 0,7 C 0,8 C 88 % 1015,9 hPa 0,0 mm 0,0 km/h (0 Bft) SO 135 -1,1 C 0,0 km/h (0 Bft)
31.01.2016 10:25 0,8 C 0,9 C 88 % 1015,5 hPa 0,0 mm 0,0 km/h (0 Bft) W 270 -1,0 C 2,8 km/h (1 Bft)
31.01.2016 10:29 0,8 C 0,9 C 88 % 1015,5 hPa 0,0 mm 0,0 km/h (0 Bft) S 180 -1,0 C 0,0 km/h (0 Bft)
31.01.2016 10:30 0,8 C 0,9 C 88 % 1015,5 hPa 0,0 mm 0,0 km/h (0 Bft) S 180 -1,0 C 0,0 km/h (0 Bft)
31.01.2016 10:35 0,8 C 0,9 C 88 % 1015,5 hPa 0,0 mm 0,0 km/h (0 Bft) W 270 -1,0 C 0,0 km/h (0 Bft)
31.01.2016 10:40 0,8 C 0,9 C 88 % 1015,5 hPa 0,0 mm 1,3 km/h (1 Bft) SO 135 -1,0 C 0,0 km/h (0 Bft)
31.01.2016 10:45 0,8 C 0,9 C 88 % 1015,5 hPa 0,7 mm 1,3 km/h (1 Bft) S-SO 157 -1,0 C 0,0 km/h (0 Bft)
31.01.2016 10:50 0,8 C 1,0 C 88 % 1015,5 hPa 0,0 mm 0,3 km/h (0 Bft) W-NW 292 -1,0 C 4,4 km/h (1 Bft)
31.01.2016 10:55 0,8 C 1,0 C 88 % 1015,5 hPa 0,0 mm 1,0 km/h (0 Bft) W-SW 247 -1,0 C 4,1 km/h (1 Bft)
31.01.2016 11:00 1,1 C 1,0 C 88 % 1015,5 hPa 0,7 mm 5,7 km/h (1 Bft) W 270 -0,7 C 3,9 km/h (1 Bft)
31.01.2016 11:05 1,4 C 0,9 C 88 % 1015,4 hPa 0,0 mm 7,8 km/h (2 Bft) W 270 -0,4 C 11,9 km/h (2 Bft)
31.01.2016 11:10 1,5 C 1,3 C 88 % 1015,4 hPa 0,7 mm 5,4 km/h (1 Bft) W-SW 247 -0,3 C 0,0 km/h (0 Bft)
31.01.2016 11:15 1,5 C 1,5 C 88 % 1015,4 hPa 0,0 mm 4,1 km/h (1 Bft) W 270 -0,3 C 3,1 km/h (1 Bft)
31.01.2016 11:20 1,5 C 1,7 C 88 % 1015,4 hPa 0,7 mm 2,1 km/h (1 Bft) W-SW 247 -0,3 C 0,0 km/h (0 Bft)
31.01.2016 11:25 1,5 C 1,8 C 88 % 1015,4 hPa 0,0 mm 1,6 km/h (1 Bft) SW 225 -0,3 C 2,8 km/h (1 Bft)
31.01.2016 11:30 1,5 C 1,9 C 88 % 1015,4 hPa 0,0 mm 1,3 km/h (1 Bft) S 180 -0,3 C 0,0 km/h (0 Bft)
31.01.2016 11:35 1,5 C 1,9 C 88 % 1015,4 hPa 0,7 mm 0,5 km/h (0 Bft) S 180 -0,3 C 0,0 km/h (0 Bft)
31.01.2016 11:40 1,5 C 1,9 C 88 % 1015,4 hPa 0,7 mm 0,0 km/h (0 Bft) S 180 -0,3 C 0,0 km/h (0 Bft)
31.01.2016 11:45 1,4 C 1,9 C 87 % 1015,5 hPa 0,0 mm 0,0 km/h (0 Bft) SW 225 -0,5 C 0,0 km/h (0 Bft)
31.01.2016 11:50 1,4 C 2,0 C 87 % 1015,5 hPa 0,0 mm 0,0 km/h (0 Bft) S 180 -0,5 C 0,0 km/h (0 Bft)
31.01.2016 11:55 1,4 C 2,1 C 87 % 1015,5 hPa 0,7 mm 0,0 km/h (0 Bft) W 270 -0,5 C 0,0 km/h (0 Bft)
31.01.2016 12:00 1,5 C 2,1 C 87 % 1015,5 hPa 0,0 mm 0,0 km/h (0 Bft) S 180 -0,4 C 0,0 km/h (0 Bft)
31.01.2016 12:05 1,5 C 2,1 C 87 % 1015,3 hPa 0,0 mm 0,3 km/h (0 Bft) S 180 -0,4 C 3,9 km/h (1 Bft)
31.01.2016 12:10 1,5 C 2,0 C 88 % 1015,3 hPa 0,7 mm 1,3 km/h (1 Bft) W-SW 247 -0,3 C 3,4 km/h (1 Bft)
31.01.2016 12:15 1,5 C 1,9 C 87 % 1015,3 hPa 0,0 mm 2,1 km/h (1 Bft) W-SW 247 -0,4 C 3,1 km/h (1 Bft)
31.01.2016 12:20 1,5 C 1,8 C 87 % 1015,3 hPa 0,7 mm 1,8 km/h (1 Bft) SW 225 -0,4 C 0,0 km/h (0 Bft)
31.01.2016 12:25 1,4 C 1,7 C 87 % 1015,0 hPa 0,0 mm 1,0 km/h (0 Bft) SW 225 -0,5 C 0,0 km/h (0 Bft)
31.01.2016 12:30 1,4 C 1,6 C 87 % 1015,0 hPa 0,0 mm 0,8 km/h (0 Bft) S 180 -0,5 C 0,0 km/h (0 Bft)
31.01.2016 12:35 1,2 C 1,5 C 87 % 1015,0 hPa 0,7 mm 0,8 km/h (0 Bft) S 180 -0,7 C 0,0 km/h (0 Bft)
31.01.2016 12:40 1,1 C 1,3 C 87 % 1015,0 hPa 0,0 mm 1,6 km/h (1 Bft) SW 225 -0,8 C 3,4 km/h (1 Bft)
31.01.2016 12:45 1,0 C 1,2 C 87 % 1015,0 hPa 0,0 mm 1,8 km/h (1 Bft) W-SW 247 -0,9 C 0,0 km/h (0 Bft)
31.01.2016 12:50 0,9 C 1,1 C 88 % 1015,0 hPa 0,0 mm 0,8 km/h (0 Bft) S 180 -0,9 C 0,0 km/h (0 Bft)
31.01.2016 12:55 0,9 C 1,0 C 88 % 1015,0 hPa 0,0 mm 0,0 km/h (0 Bft) S 180 -0,9 C 0,0 km/h (0 Bft)
31.01.2016 13:00 0,9 C 0,9 C 88 % 1015,0 hPa 0,0 mm 0,0 km/h (0 Bft) S 180 -0,9 C 0,0 km/h (0 Bft)
31.01.2016 13:05 0,8 C 0,9 C 88 % 1014,7 hPa 0,7 mm 0,0 km/h (0 Bft) S 180 -1,0 C 0,0 km/h (0 Bft)
31.01.2016 13:10 0,9 C 1,0 C 88 % 1014,7 hPa 0,0 mm 0,0 km/h (0 Bft) W 270 -0,9 C 0,0 km/h (0 Bft)
31.01.2016 13:15 0,8 C 1,0 C 88 % 1014,7 hPa 0,0 mm 0,0 km/h (0 Bft) W 270 -1,0 C 0,0 km/h (0 Bft)
31.01.2016 13:20 0,8 C 1,0 C 88 % 1014,7 hPa 0,0 mm 0,0 km/h (0 Bft) W 270 -1,0 C 0,0 km/h (0 Bft)
31.01.2016 13:25 0,8 C 0,9 C 88 % 1014,6 hPa 0,0 mm 0,0 km/h (0 Bft) O-NO 67 -1,0 C 0,0 km/h (0 Bft)
31.01.2016 13:30 0,7 C 0,7 C 88 % 1014,6 hPa 0,0 mm 0,0 km/h (0 Bft) O-NO 67 -1,1 C 0,0 km/h (0 Bft)
31.01.2016 13:35 0,6 C 0,6 C 87 % 1014,6 hPa 0,0 mm 0,0 km/h (0 Bft) O-NO 67 -1,3 C 0,0 km/h (0 Bft)
31.01.2016 13:40 0,6 C 0,7 C 88 % 1014,6 hPa 0,0 mm 0,0 km/h (0 Bft) O-NO 67 -1,2 C 0,0 km/h (0 Bft)
31.01.2016 13:45 0,6 C 0,7 C 88 % 1014,5 hPa 0,0 mm 0,0 km/h (0 Bft) O-NO 67 -1,2 C 0,0 km/h (0 Bft)
31.01.2016 13:50 0,7 C 0,8 C 88 % 1014,5 hPa 0,0 mm 0,0 km/h (0 Bft) O-NO 67 -1,1 C 0,0 km/h (0 Bft)
31.01.2016 13:55 0,7 C 0,9 C 88 % 1014,5 hPa 0,0 mm 0,0 km/h (0 Bft) O-NO 67 -1,1 C 0,0 km/h (0 Bft)
31.01.2016 14:00 0,7 C 0,8 C 88 % 1014,5 hPa 0,0 mm 0,0 km/h (0 Bft) O-NO 67 -1,1 C 0,0 km/h (0 Bft)
31.01.2016 14:05 0,6 C 0,8 C 88 % 1014,4 hPa 0,0 mm 0,0 km/h (0 Bft) O-NO 67 -1,2 C 0,0 km/h (0 Bft)
31.01.2016 14:10 0,7 C 0,9 C 88 % 1014,4 hPa 0,7 mm 0,0 km/h (0 Bft) O-NO 67 -1,1 C 0,0 km/h (0 Bft)
31.01.2016 14:15 0,7 C 0,9 C 88 % 1014,4 hPa 0,0 mm 0,0 km/h (0 Bft) O-NO 67 -1,1 C 0,0 km/h (0 Bft)
31.01.2016 14:20 0,7 C 0,9 C 88 % 1014,4 hPa 0,0 mm 0,0 km/h (0 Bft) O-NO 67 -1,1 C 0,0 km/h (0 Bft)
31.01.2016 14:25 0,7 C 0,9 C 88 % 1014,4 hPa 0,0 mm 0,0 km/h (0 Bft) O-NO 67 -1,1 C 0,0 km/h (0 Bft)
31.01.2016 14:30 0,7 C 0,8 C 88 % 1014,4 hPa 0,0 mm 0,0 km/h (0 Bft) O-NO 67 -1,1 C 0,0 km/h (0 Bft)
31.01.2016 14:35 0,7 C 0,8 C 88 % 1014,4 hPa 0,0 mm 0,0 km/h (0 Bft) O-NO 67 -1,1 C 0,0 km/h (0 Bft)
31.01.2016 14:40 0,6 C 0,8 C 88 % 1014,4 hPa 0,0 mm 0,0 km/h (0 Bft) O-NO 67 -1,2 C 0,0 km/h (0 Bft)
31.01.2016 14:45 0,6 C 0,8 C 88 % 1014,7 hPa 0,0 mm 0,0 km/h (0 Bft) O-NO 67 -1,2 C 0,0 km/h (0 Bft)
31.01.2016 14:50 0,6 C 0,8 C 88 % 1014,7 hPa 0,0 mm 0,0 km/h (0 Bft) O-NO 67 -1,2 C 0,0 km/h (0 Bft)
31.01.2016 14:55 0,6 C 0,6 C 88 % 1014,7 hPa 0,0 mm 0,0 km/h (0 Bft) O-NO 67 -1,2 C 0,0 km/h (0 Bft)
31.01.2016 15:00 0,6 C 0,7 C 88 % 1014,7 hPa 0,0 mm 0,0 km/h (0 Bft) O-NO 67 -1,2 C 0,0 km/h (0 Bft)
31.01.2016 15:05 0,6 C 0,6 C 88 % 1014,2 hPa 0,0 mm 0,0 km/h (0 Bft) O-NO 67 -1,2 C 0,0 km/h (0 Bft)
31.01.2016 15:10 0,6 C 0,6 C 88 % 1014,2 hPa 0,0 mm 0,0 km/h (0 Bft) O-NO 67 -1,2 C 0,0 km/h (0 Bft)
31.01.2016 15:15 0,6 C 0,7 C 88 % 1014,2 hPa 0,0 mm 0,0 km/h (0 Bft) O-NO 67 -1,2 C 0,0 km/h (0 Bft)
31.01.2016 15:20 0,6 C 0,6 C 88 % 1014,2 hPa 0,0 mm 0,0 km/h (0 Bft) O-NO 67 -1,2 C 0,0 km/h (0 Bft)
31.01.2016 15:25 0,6 C 0,6 C 88 % 1014,0 hPa 0,7 mm 0,0 km/h (0 Bft) O-NO 67 -1,2 C 0,0 km/h (0 Bft)
31.01.2016 15:30 0,6 C 0,6 C 88 % 1014,0 hPa 0,0 mm 0,0 km/h (0 Bft) O-NO 67 -1,2 C 0,0 km/h (0 Bft)
31.01.2016 15:35 0,6 C 0,6 C 88 % 1014,0 hPa 0,0 mm 0,0 km/h (0 Bft) O-NO 67 -1,2 C 0,0 km/h (0 Bft)
31.01.2016 15:40 0,6 C 0,8 C 88 % 1014,0 hPa 0,7 mm 0,0 km/h (0 Bft) O-NO 67 -1,2 C 0,0 km/h (0 Bft)
31.01.2016 15:45 0,7 C 0,9 C 88 % 1013,9 hPa 0,0 mm 0,0 km/h (0 Bft) O-NO 67 -1,1 C 0,0 km/h (0 Bft)
31.01.2016 15:50 0,6 C 0,8 C 88 % 1013,9 hPa 0,0 mm 0,0 km/h (0 Bft) O-NO 67 -1,2 C 0,0 km/h (0 Bft)
31.01.2016 15:55 0,6 C 0,8 C 88 % 1013,9 hPa 0,7 mm 0,0 km/h (0 Bft) O-NO 67 -1,2 C 0,0 km/h (0 Bft)
31.01.2016 16:00 0,6 C 0,8 C 88 % 1013,9 hPa 0,0 mm 0,0 km/h (0 Bft) O-NO 67 -1,2 C 0,0 km/h (0 Bft)
31.01.2016 16:05 0,6 C 0,7 C 88 % 1014,0 hPa 0,0 mm 0,0 km/h (0 Bft) O-NO 67 -1,2 C 0,0 km/h (0 Bft)
31.01.2016 16:10 0,6 C 0,7 C 88 % 1014,0 hPa 0,0 mm 0,0 km/h (0 Bft) O-NO 67 -1,2 C 0,0 km/h (0 Bft)
31.01.2016 16:15 0,6 C 0,7 C 88 % 1014,0 hPa 0,0 mm 0,0 km/h (0 Bft) O-NO 67 -1,2 C 0,0 km/h (0 Bft)
31.01.2016 16:20 0,6 C 0,7 C 88 % 1014,0 hPa 0,7 mm 0,0 km/h (0 Bft) O-NO 67 -1,2 C 0,0 km/h (0 Bft)
31.01.2016 16:25 0,6 C 0,6 C 88 % 1013,9 hPa 0,0 mm 0,0 km/h (0 Bft) O-NO 67 -1,2 C 0,0 km/h (0 Bft)
31.01.2016 16:29 0,5 C 0,5 C 88 % 1013,9 hPa 0,0 mm 0,0 km/h (0 Bft) O-NO 67 -1,3 C 0,0 km/h (0 Bft)
31.01.2016 16:31 0,5 C 0,5 C 88 % 1013,9 hPa 0,0 mm 0,0 km/h (0 Bft) O-NO 67 -1,3 C 0,0 km/h (0 Bft)
31.01.2016 16:35 0,5 C 0,5 C 88 % 1013,9 hPa 0,0 mm 0,0 km/h (0 Bft) O-NO 67 -1,3 C 0,0 km/h (0 Bft)
31.01.2016 16:40 0,5 C 0,4 C 88 % 1013,9 hPa 0,7 mm 0,0 km/h (0 Bft) O-NO 67 -1,3 C 0,0 km/h (0 Bft)
31.01.2016 16:45 0,5 C 0,4 C 88 % 1014,0 hPa 0,0 mm 0,0 km/h (0 Bft) O-NO 67 -1,3 C 0,0 km/h (0 Bft)
31.01.2016 16:50 0,5 C 0,3 C 91 % 1014,0 hPa 0,0 mm 0,3 km/h (0 Bft) O-NO 67 -0,8 C 0,0 km/h (0 Bft)
31.01.2016 16:55 0,5 C 0,3 C 91 % 1014,0 hPa 0,0 mm 0,3 km/h (0 Bft) O-NO 67 -0,8 C 0,0 km/h (0 Bft)
31.01.2016 17:00 0,4 C 0,2 C 91 % 1014,0 hPa 0,0 mm 0,0 km/h (0 Bft) O-NO 67 -0,9 C 0,0 km/h (0 Bft)
31.01.2016 17:05 0,4 C 0,2 C 91 % 1014,1 hPa 0,0 mm 0,0 km/h (0 Bft) O-NO 67 -0,9 C 0,0 km/h (0 Bft)
31.01.2016 17:10 0,4 C 0,2 C 92 % 1014,1 hPa 0,7 mm 0,0 km/h (0 Bft) O-NO 67 -0,7 C 0,0 km/h (0 Bft)
31.01.2016 17:15 0,4 C 0,2 C 92 % 1014,1 hPa 0,0 mm 0,0 km/h (0 Bft) O-NO 67 -0,7 C 0,0 km/h (0 Bft)
31.01.2016 17:20 0,4 C 0,2 C 92 % 1014,1 hPa 0,0 mm 0,8 km/h (0 Bft) O-NO 67 -0,7 C 2,8 km/h (1 Bft)
31.01.2016 17:25 0,4 C 0,2 C 92 % 1014,3 hPa 0,0 mm 0,8 km/h (0 Bft) O-NO 67 -0,7 C 0,0 km/h (0 Bft)
31.01.2016 17:30 0,4 C 0,2 C 92 % 1014,3 hPa 0,0 mm 0,3 km/h (0 Bft) O-NO 67 -0,7 C 0,0 km/h (0 Bft)
31.01.2016 17:35 0,4 C 0,2 C 92 % 1014,3 hPa 0,7 mm 0,0 km/h (0 Bft) O-NO 67 -0,7 C 0,0 km/h (0 Bft)
31.01.2016 17:40 0,4 C 0,2 C 92 % 1014,3 hPa 0,0 mm 0,3 km/h (0 Bft) O-NO 67 -0,7 C 0,0 km/h (0 Bft)
31.01.2016 17:45 0,3 C 0,2 C 92 % 1014,4 hPa 0,0 mm 0,3 km/h (0 Bft) O-NO 67 -0,8 C 0,0 km/h (0 Bft)
31.01.2016 17:50 0,3 C 0,2 C 92 % 1014,4 hPa 0,0 mm 0,0 km/h (0 Bft) O-NO 67 -0,8 C 0,0 km/h (0 Bft)
31.01.2016 17:55 0,3 C 0,2 C 92 % 1014,4 hPa 0,0 mm 0,0 km/h (0 Bft) O-NO 67 -0,8 C 0,0 km/h (0 Bft)
31.01.2016 18:00 0,3 C 0,2 C 92 % 1014,4 hPa 0,0 mm 0,0 km/h (0 Bft) O-NO 67 -0,8 C 0,0 km/h (0 Bft)
31.01.2016 18:05 0,3 C 0,2 C 92 % 1013,9 hPa 0,7 mm 0,0 km/h (0 Bft) O-NO 67 -0,8 C 0,0 km/h (0 Bft)
31.01.2016 18:10 0,3 C 0,2 C 92 % 1013,9 hPa 0,0 mm 0,0 km/h (0 Bft) O 90 -0,8 C 0,0 km/h (0 Bft)
31.01.2016 18:15 0,4 C 0,3 C 92 % 1013,9 hPa 0,0 mm 0,0 km/h (0 Bft) SO 135 -0,7 C 0,0 km/h (0 Bft)
31.01.2016 18:20 0,4 C 0,3 C 92 % 1013,9 hPa 0,0 mm 0,0 km/h (0 Bft) O-NO 67 -0,7 C 0,0 km/h (0 Bft)
31.01.2016 18:25 0,4 C 0,3 C 92 % 1014,2 hPa 0,0 mm 0,0 km/h (0 Bft) O-NO 67 -0,7 C 0,0 km/h (0 Bft)
31.01.2016 18:30 0,4 C 0,3 C 92 % 1014,2 hPa 0,0 mm 0,0 km/h (0 Bft) O-NO 67 -0,7 C 0,0 km/h (0 Bft)
31.01.2016 18:35 0,4 C 0,3 C 92 % 1014,2 hPa 0,0 mm 0,0 km/h (0 Bft) S-SO 157 -0,7 C 0,0 km/h (0 Bft)
31.01.2016 18:40 0,6 C 0,6 C 92 % 1014,2 hPa 0,7 mm 2,1 km/h (1 Bft) W-NW 292 -0,5 C 3,4 km/h (1 Bft)
31.01.2016 18:45 0,8 C 1,1 C 88 % 1014,4 hPa 0,0 mm 3,6 km/h (1 Bft) W-SW 247 -1,0 C 8,3 km/h (2 Bft)
31.01.2016 18:50 2,8 C 2,3 C 88 % 1014,4 hPa 0,0 mm 7,3 km/h (2 Bft) W-SW 247 1,0 C 12,4 km/h (3 Bft)
31.01.2016 18:55 3,2 C 2,6 C 92 % 1014,4 hPa 0,7 mm 10,1 km/h (2 Bft) W-SW 247 2,0 C 12,4 km/h (3 Bft)
31.01.2016 19:00 3,6 C 3,1 C 93 % 1014,4 hPa 0,7 mm 10,4 km/h (2 Bft) SW 225 2,6 C 12,2 km/h (2 Bft)
31.01.2016 19:05 3,6 C 3,3 C 93 % 1014,1 hPa 0,7 mm 9,6 km/h (2 Bft) SW 225 2,6 C 8,5 km/h (2 Bft)
31.01.2016 19:10 3,8 C 3,5 C 93 % 1014,1 hPa 0,7 mm 8,8 km/h (2 Bft) SW 225 2,8 C 11,7 km/h (2 Bft)
31.01.2016 19:15 4,1 C 3,7 C 93 % 1014,1 hPa 0,0 mm 8,8 km/h (2 Bft) W 270 3,1 C 10,9 km/h (2 Bft)
31.01.2016 19:20 4,4 C 4,0 C 93 % 1014,1 hPa 0,7 mm 9,3 km/h (2 Bft) SW 225 3,4 C 7,8 km/h (2 Bft)
31.01.2016 19:25 4,4 C 4,0 C 93 % 1014,0 hPa 0,7 mm 9,3 km/h (2 Bft) W-SW 247 3,4 C 14,0 km/h (3 Bft)
31.01.2016 19:30 4,4 C 4,2 C 94 % 1014,0 hPa 0,0 mm 8,5 km/h (2 Bft) W-SW 247 3,5 C 11,1 km/h (2 Bft)
31.01.2016 19:35 4,5 C 4,2 C 94 % 1014,0 hPa 0,7 mm 8,5 km/h (2 Bft) W 270 3,6 C 7,8 km/h (2 Bft)
31.01.2016 19:40 4,8 C 4,4 C 94 % 1014,0 hPa 0,0 mm 9,6 km/h (2 Bft) W-SW 247 3,9 C 14,8 km/h (3 Bft)
31.01.2016 19:45 4,6 C 4,4 C 94 % 1014,2 hPa 0,7 mm 9,1 km/h (2 Bft) W 270 3,7 C 11,7 km/h (2 Bft)
31.01.2016 19:50 4,9 C 4,6 C 94 % 1014,2 hPa 0,7 mm 9,6 km/h (2 Bft) SW 225 4,0 C 12,2 km/h (2 Bft)
31.01.2016 19:55 4,9 C 4,6 C 94 % 1014,2 hPa 0,0 mm 10,1 km/h (2 Bft) W-SW 247 4,0 C 13,5 km/h (3 Bft)
31.01.2016 20:00 5,0 C 4,7 C 94 % 1014,2 hPa 0,7 mm 9,3 km/h (2 Bft) W-SW 247 4,1 C 11,1 km/h (2 Bft)
31.01.2016 20:05 4,9 C 4,6 C 94 % 1014,2 hPa 0,0 mm 9,3 km/h (2 Bft) W-SW 247 4,0 C 11,1 km/h (2 Bft)
31.01.2016 20:10 4,9 C 4,6 C 94 % 1014,2 hPa 0,7 mm 9,6 km/h (2 Bft) W-SW 247 4,0 C 14,2 km/h (3 Bft)
31.01.2016 20:15 5,0 C 4,7 C 94 % 1014,2 hPa 0,0 mm 9,8 km/h (2 Bft) W-SW 247 4,1 C 10,9 km/h (2 Bft)
31.01.2016 20:20 5,3 C 4,8 C 94 % 1014,2 hPa 0,7 mm 10,6 km/h (2 Bft) W 270 4,4 C 16,3 km/h (3 Bft)
31.01.2016 20:25 5,5 C 5,0 C 94 % 1014,5 hPa 0,0 mm 11,7 km/h (2 Bft) W-NW 292 4,6 C 14,0 km/h (3 Bft)
31.01.2016 20:30 5,5 C 5,0 C 94 % 1014,5 hPa 0,7 mm 11,4 km/h (2 Bft) NW 315 4,6 C 11,1 km/h (2 Bft)
31.01.2016 20:35 5,5 C 5,1 C 94 % 1014,5 hPa 0,0 mm 10,9 km/h (2 Bft) W-SW 247 4,6 C 13,5 km/h (3 Bft)
31.01.2016 20:40 5,7 C 5,2 C 94 % 1014,5 hPa 0,7 mm 11,9 km/h (2 Bft) W-SW 247 4,8 C 24,3 km/h (4 Bft)
31.01.2016 20:45 5,6 C 5,2 C 94 % 1014,3 hPa 0,0 mm 11,9 km/h (2 Bft) W 270 4,7 C 19,4 km/h (3 Bft)
31.01.2016 20:50 5,5 C 5,2 C 94 % 1014,3 hPa 0,7 mm 9,8 km/h (2 Bft) W-SW 247 4,6 C 10,4 km/h (2 Bft)
31.01.2016 20:55 5,5 C 5,2 C 94 % 1014,3 hPa 0,0 mm 9,6 km/h (2 Bft) W-SW 247 4,6 C 18,4 km/h (3 Bft)
31.01.2016 21:00 5,6 C 5,3 C 94 % 1014,3 hPa 0,0 mm 9,8 km/h (2 Bft) SW 225 4,7 C 10,9 km/h (2 Bft)
31.01.2016 21:05 5,7 C 5,3 C 94 % 1014,2 hPa 0,7 mm 10,1 km/h (2 Bft) W-SW 247 4,8 C 10,1 km/h (2 Bft)
31.01.2016 21:10 5,7 C 5,3 C 94 % 1014,2 hPa 0,0 mm 10,1 km/h (2 Bft) W-NW 292 4,8 C 18,1 km/h (3 Bft)
31.01.2016 21:15 5,7 C 5,4 C 94 % 1014,2 hPa 0,7 mm 9,3 km/h (2 Bft) W-SW 247 4,8 C 11,9 km/h (2 Bft)
31.01.2016 21:20 5,8 C 5,5 C 94 % 1014,2 hPa 0,0 mm 9,3 km/h (2 Bft) SW 225 4,9 C 15,0 km/h (3 Bft)
31.01.2016 21:25 5,8 C 5,5 C 94 % 1014,4 hPa 0,0 mm 9,8 km/h (2 Bft) W-SW 247 4,9 C 9,8 km/h (2 Bft)
31.01.2016 21:30 5,9 C 5,6 C 94 % 1014,4 hPa 0,7 mm 9,3 km/h (2 Bft) W 270 5,0 C 9,8 km/h (2 Bft)
31.01.2016 21:35 5,7 C 5,5 C 94 % 1014,4 hPa 0,0 mm 8,0 km/h (2 Bft) W-SW 247 4,8 C 5,7 km/h (1 Bft)
31.01.2016 21:40 6,4 C 5,9 C 93 % 1014,4 hPa 0,0 mm 11,4 km/h (2 Bft) W-SW 247 5,4 C 17,6 km/h (3 Bft)
31.01.2016 21:45 6,7 C 6,2 C 93 % 1014,7 hPa 0,7 mm 14,2 km/h (3 Bft) W 270 5,6 C 19,2 km/h (3 Bft)
31.01.2016 21:50 6,8 C 6,1 C 92 % 1014,7 hPa 0,0 mm 16,3 km/h (3 Bft) W 270 5,6 C 34,7 km/h (5 Bft)
31.01.2016 21:55 6,8 C 6,1 C 92 % 1014,7 hPa 0,7 mm 16,3 km/h (3 Bft) W-NW 292 5,6 C 36,5 km/h (5 Bft)
31.01.2016 22:00 6,9 C 6,4 C 92 % 1014,7 hPa 0,0 mm 16,6 km/h (3 Bft) W-NW 292 5,7 C 23,3 km/h (4 Bft)
31.01.2016 22:05 7,1 C 6,5 C 91 % 1014,5 hPa 0,0 mm 18,9 km/h (3 Bft) SW 225 5,7 C 51,0 km/h (7 Bft)
31.01.2016 22:10 7,2 C 6,5 C 91 % 1014,5 hPa 0,7 mm 22,0 km/h (4 Bft) W 270 5,8 C 33,1 km/h (5 Bft)
31.01.2016 22:15 7,3 C 6,5 C 90 % 1014,5 hPa 0,0 mm 23,0 km/h (4 Bft) W-NW 292 5,8 C 52,0 km/h (7 Bft)
31.01.2016 22:20 7,2 C 6,5 C 90 % 1014,5 hPa 0,7 mm 21,8 km/h (4 Bft) W 270 5,7 C 31,8 km/h (5 Bft)
31.01.2016 22:25 7,2 C 6,3 C 90 % 1014,7 hPa 0,0 mm 21,2 km/h (4 Bft) SW 225 5,7 C 52,0 km/h (7 Bft)
31.01.2016 22:30 7,5 C 6,5 C 89 % 1014,7 hPa 0,0 mm 21,8 km/h (4 Bft) W-SW 247 5,8 C 26,9 km/h (4 Bft)
31.01.2016 22:32 7,5 C 6,5 C 89 % 1014,7 hPa 0,0 mm 21,8 km/h (4 Bft) W-SW 247 5,8 C 26,9 km/h (4 Bft)
31.01.2016 22:35 7,4 C 6,7 C 89 % 1014,7 hPa 0,7 mm 21,0 km/h (4 Bft) W-NW 292 5,7 C 21,2 km/h (4 Bft)
31.01.2016 22:40 7,4 C 6,8 C 88 % 1014,7 hPa 0,0 mm 19,2 km/h (3 Bft) NW 315 5,5 C 23,6 km/h (4 Bft)
31.01.2016 22:45 7,4 C 6,5 C 88 % 1015,1 hPa 0,0 mm 18,9 km/h (3 Bft) W 270 5,5 C 21,2 km/h (4 Bft)
31.01.2016 22:50 7,6 C 6,9 C 88 % 1015,1 hPa 0,0 mm 20,5 km/h (4 Bft) W 270 5,7 C 14,8 km/h (3 Bft)
31.01.2016 22:55 7,4 C 6,8 C 88 % 1015,1 hPa 0,0 mm 19,9 km/h (4 Bft) W-SW 247 5,5 C 22,8 km/h (4 Bft)
31.01.2016 23:00 7,2 C 6,7 C 88 % 1015,1 hPa 0,7 mm 17,6 km/h (3 Bft) W-SW 247 5,3 C 20,2 km/h (4 Bft)
31.01.2016 23:05 7,4 C 6,9 C 89 % 1015,3 hPa 0,0 mm 17,1 km/h (3 Bft) W 270 5,7 C 23,0 km/h (4 Bft)
31.01.2016 23:10 7,5 C 6,9 C 89 % 1015,3 hPa 0,0 mm 19,7 km/h (3 Bft) W 270 5,8 C 30,3 km/h (5 Bft)
31.01.2016 23:15 7,4 C 6,6 C 89 % 1015,3 hPa 0,0 mm 19,7 km/h (3 Bft) W 270 5,7 C 23,8 km/h (4 Bft)
31.01.2016 23:20 7,5 C 6,9 C 89 % 1015,3 hPa 0,0 mm 17,9 km/h (3 Bft) W 270 5,8 C 15,5 km/h (3 Bft)
31.01.2016 23:25 7,5 C 7,0 C 89 % 1015,2 hPa 0,0 mm 17,9 km/h (3 Bft) SW 225 5,8 C 21,5 km/h (4 Bft)
31.01.2016 23:30 7,5 C 6,7 C 89 % 1015,2 hPa 0,0 mm 17,3 km/h (3 Bft) SW 225 5,8 C 25,9 km/h (4 Bft)
31.01.2016 23:35 7,4 C 6,9 C 89 % 1015,2 hPa 0,0 mm 16,3 km/h (3 Bft) W-SW 247 5,7 C 17,6 km/h (3 Bft)
31.01.2016 23:40 7,5 C 7,0 C 89 % 1015,2 hPa 0,0 mm 16,1 km/h (3 Bft) W-NW 292 5,8 C 24,3 km/h (4 Bft)
31.01.2016 23:45 7,5 C 7,0 C 89 % 1015,1 hPa 0,0 mm 14,5 km/h (3 Bft) W 270 5,8 C 7,5 km/h (2 Bft)
31.01.2016 23:50 7,6 C 6,9 C 89 % 1015,1 hPa 0,0 mm 14,2 km/h (3 Bft) W-NW 292 5,9 C 20,7 km/h (4 Bft)
31.01.2016 23:55 7,8 C 7,1 C 89 % 1015,1 hPa 0,0 mm 15,5 km/h (3 Bft) W-NW 292 6,1 C 16,3 km/h (3 Bft)
_ Min-Zeit 08:45 07:40 08:00 00:00 - 18:35 - - 08:00 18:35
Minimum _ 0,2 C 0,0 C 86 % 1013,8 hPa - 0,0 km/h (0 Bft) - - -1,9 C 0,0 km/h (0 Bft)
_ Max-Zeit 23:55 23:55 21:35 08:20 23:00 22:15 - - 23:55 22:25
Maximum _ 7,8 C 7,1 C 94 % 1016,5 hPa 0,7 mm 23,0 km/h
W-NW (4 Bft)
- - 6,1 C 52,0 km/h
SW (7 Bft)
Durchschnitt _ 2,1 C 1,8 C 90 % 1014,9 hPa #45,3 mm 4,8 km/h (1 Bft) W-SW - 0,6 C 6,7 km/h (2 Bft)